Helena Regional Airport Helena US
ICAO: KHLN
IATA: HLN
Category: Medium
Scheduled Services: Yes

Elevation: 3877 ft
TransAlt. 18000 ft.

Airport Communications:
APP/DEP:119.5
ATIS:120.4
CTAF:118.3
GND:121.9
ARNG OPS:40.65
GREAT FALLS RDO:122.55
TWR:118.3
UNICOM:122.95

KHLN Zoom In..

If Map Doesn't Load, Click Here

Runways:

(A) RW 05 length 4644 ft width 75 ft
---- / hdg 50

(B) RW 09 length 9000 ft width 150 ft
---- / hdg 87

(C) RW 16 length 2989 ft width 75 ft
---- / hdg 163

(D) RW 23 length 4644 ft width 75 ft
---- / hdg 230

(E) RW 27 length 9000 ft width 150 ft
ILS 110.10 / hdg 267

(F) RW 34 length 2989 ft width 75 ft
---- / hdg 343

Location; KHLN
Day. 23 / Time. 20.53 Zulu
* Altimeter: 29.94
* Temperature: 16° c. 60.8°f.
* Wind from: 280° Speed 10 kn.
Dewpoint: 06° c.
Visibility: 10 Statute Miles.
Clouds: Clear (automated report).

KHLN 232053Z 28010KT 10SM CLR 16/06 A2994 RMK AO2 RAE03 SLP135 P0000 60005 T01610056 58011


Wind From 280°
Speed 10 kn.

 
 
jpsmedia.com for Web Design worldairports.se 2018   terms of use